Location: Arnolds Mill
(42.3415°N, 73.5951°W)
Time: 09:56:48
(UTC+00:00)

BlueWalker 3 - Pass Details

Date: 23 June 2024
Orbit: 480 x 492 km, 53.2° (Epoch: 13 July)

Event Time Altitude Azimuth Distance (km) Brightness Sun altitude
Rises 02:23:46 0° 274° (W) 2,539 6.1 -15.4°
Reaches altitude 10° 02:26:19 10° 291° (WNW) 1,659 5.4 -15.6°
Maximum altitude 02:29:14 21° 342° (NNW) 1,123 4.6 -16.0°
Drops below altitude 10° 02:32:10 10° 34° (NE) 1,659 4.8 -16.3°
Sets 02:34:43 0° 51° (NE) 2,540 5.6 -16.5°
